User: anonymous   Login
Location: Baumgartsau
(48.4586°N, 14.0864°E)
Time: 11:26:34
(UTC+00:00)
Language:

SL-16 R/B - Orbit

View from above orbital plane
View from above orbital plane
View from above satellite
View from above satellite

Ground track
Ground track

The orbit data is extracted from the following two-line orbital elements,

1 31793U 07029B   20185.11611800  .00000131  00000-0  93536-4 0  9990
2 31793  70.9749 213.4588 0002678 269.9991 148.2645 14.14435598671941
Epoch (UTC): 03 July 2020 02:47:12
Eccentricity: 0.0002678
inclination: 70.9749°
perigee height: 842 km
apogee height: 846 km
right ascension of ascending node: 213.4588°
argument of perigee: 269.9991°
revolutions per day: 14.14435598
mean anomaly at epoch: 148.2645°
orbit number at epoch: 67194

The dashed part of the orbit path shows where the satellite is in the earth's shadow,  

DLR